Flag for U.S.A. Weather past 2 weeks in Alpena, Michigan, U.S.A.

Now
30 °F

Light snow. Ice fog.


Feels Like: 22 °F
Forecast: 24 / 31 °F
Wind: 9 mph from Northwest

Location: Alpena County Regional Airport

Current Time: Dec 27, 2014 at 11:32:35 PM

Latest Report: Dec 27, 2014 at 11:00 PM


Visibility: 3 mi

Pressure: 29.92 "Hg

Humidity: 89%

Dew point: 27 °F

Location of AlpenaLocation

Historic Weather in Alpena — Graph

°F

Alpena temperature yesterday

Maximum temperature yesterday: 40 °F (at 2:54 PM)
Minimum temperature yesterday: 34 °F (at 2:54 AM)
Average temperature yesterday: 37 °F

Past Weeks' High & Low Weather Summary

 TemperatureHumidityPressure
High48 °F (Dec 27, 4:54 PM)100% (Dec 14, 12:54 AM)30.36 "Hg (Dec 14, 12:54 AM)
Low8 °F (Dec 20, 7:54 AM)30% (Dec 15, 5:54 AM)29.22 "Hg (Dec 24, 10:54 PM)
Average32 °F89%30.00 "Hg
* Reported Dec 12 9:54 PM — Dec 27 9:54 PM, Alpena, Weather by CustomWeather, © 2014

Note: Actual official high and low records may vary slightly from our data, if they occured in-between our weather recording intervals... More about our weather records

Advertising

Alpena weather history for previous 24 hours

 ConditionsComfort  
Time TempWeatherWind HumidityBarometerVisibility
9:54 PM
Dec 27
32 °FLight snow. Overcast.10 mph85%29.92 "Hg7 mi
8:54 PM33 °FMostly cloudy.13 mph85%29.89 "Hg10 mi
7:54 PM35 °FMostly cloudy.12 mph88%29.85 "Hg10 mi
6:54 PM41 °FMostly cloudy.16 mph80%29.80 "Hg10 mi
5:54 PM44 °FMostly cloudy.12 mph85%29.78 "Hg10 mi
4:54 PM48 °FMostly cloudy.16 mph74%29.73 "Hg10 mi
3:54 PM47 °FMostly cloudy.10 mph86%29.71 "Hg10 mi
2:54 PM46 °FLight rain. Overcast.16 mph89%29.74 "Hg7 mi
1:54 PM46 °FOvercast.21 mph86%29.74 "Hg10 mi
12:54 PM45 °FOvercast.9 mph86%29.76 "Hg10 mi
11:54 AM43 °FLow clouds.12 mph89%29.83 "Hg8 mi
10:54 AM39 °FFog.9 mph96%29.89 "Hg4 mi
10:03 AM38 °FLight rain. Fog.6 mph93%29.93 "Hg6 mi
9:54 AM38 °FFog.7 mph93%29.96 "Hg6 mi
8:54 AM36 °FFog.3 mph92%29.97 "Hg6 mi
7:54 AM36 °FOvercast.5 mph97%29.99 "Hg7 mi
6:54 AM36 °FMostly cloudy.6 mph92%30.00 "Hg8 mi
5:54 AM36 °FOvercast.6 mph92%30.01 "Hg10 mi
4:54 AM37 °FMostly cloudy.5 mph89%30.04 "Hg10 mi
3:54 AM37 °FOvercast.7 mph86%30.07 "Hg10 mi
2:54 AM36 °FOvercast.6 mph89%30.07 "Hg10 mi
1:54 AM36 °FOvercast.5 mph89%30.07 "Hg10 mi
12:54 AM36 °FOvercast.5 mph89%30.08 "Hg10 mi
11:54 PM
Dec 26
37 °FOvercast.3 mph89%30.08 "Hg10 mi
Weather by CustomWeather, © 2014

See weather overviewHow to use our weather pages